Time,TemperatureF,DewpointF,PressureIn,WindDirection,WindDirectionDegrees,WindSpeedMPH,WindSpeedGustMPH,Humidity,HourlyPrecipIn,Conditions,Clouds,dailyrainin,SoftwareType,DateUTC
2013-03-21 00:03:00,61.0,57.0,29.86,East,90,0.0,0.0,86,0.00,,,0.00,,2013-03-21 04:03:00,
2013-03-21 00:13:00,61.0,57.0,29.86,East,90,0.0,0.0,86,0.00,,,0.00,,2013-03-21 04:13:00,
2013-03-21 00:23:00,61.0,57.0,29.85,East,90,0.0,0.0,87,0.00,,,0.00,,2013-03-21 04:23:00,
2013-03-21 00:33:00,60.0,56.0,29.84,West,261,0.0,1.0,88,0.00,,,0.00,,2013-03-21 04:33:00,
2013-03-21 00:43:00,60.0,56.0,29.84,West,261,0.0,1.0,88,0.00,,,0.00,,2013-03-21 04:43:00,
2013-03-21 00:53:00,60.0,57.0,29.84,East,90,0.0,0.0,89,0.00,,,0.00,,2013-03-21 04:53:00,
2013-03-21 01:03:00,59.0,56.0,29.84,East,90,0.0,0.0,90,0.00,,,0.00,,2013-03-21 05:03:00,
2013-03-21 01:12:00,59.0,56.0,29.84,East,90,0.0,0.0,90,0.00,,,0.00,,2013-03-21 05:12:00,
2013-03-21 01:22:00,58.0,55.0,29.84,East,90,0.0,0.0,91,0.00,,,0.00,,2013-03-21 05:22:00,
2013-03-21 01:33:00,59.0,57.0,29.86,West,280,0.0,2.0,92,0.00,,,0.00,,2013-03-21 05:33:00,
2013-03-21 01:44:00,59.0,56.0,29.87,WNW,289,0.0,1.0,91,0.00,,,0.00,,2013-03-21 05:44:00,
2013-03-21 01:52:00,59.0,56.0,29.87,WNW,289,0.0,1.0,91,0.00,,,0.00,,2013-03-21 05:52:00,
2013-03-21 02:03:00,59.0,56.0,29.87,East,90,0.0,0.0,91,0.00,,,0.00,,2013-03-21 06:03:00,
2013-03-21 02:12:00,59.0,56.0,29.87,East,90,0.0,0.0,91,0.00,,,0.00,,2013-03-21 06:12:00,
2013-03-21 02:22:00,59.0,57.0,29.87,East,90,0.0,0.0,92,0.00,,,0.00,,2013-03-21 06:22:00,
2013-03-21 02:32:00,58.0,56.0,29.87,WNW,283,0.0,1.0,92,0.00,,,0.00,,2013-03-21 06:32:00,
2013-03-21 02:42:00,58.0,56.0,29.87,WNW,283,0.0,1.0,92,0.00,,,0.00,,2013-03-21 06:42:00,
2013-03-21 02:52:00,58.0,56.0,29.87,West,271,0.0,1.0,93,0.00,,,0.00,,2013-03-21 06:52:00,
2013-03-21 03:02:00,58.0,56.0,29.86,East,90,0.0,0.0,93,0.00,,,0.00,,2013-03-21 07:02:00,
2013-03-21 03:12:00,58.0,56.0,29.86,East,90,0.0,0.0,93,0.00,,,0.00,,2013-03-21 07:12:00,
2013-03-21 03:22:00,57.0,55.0,29.86,WNW,282,0.0,2.0,94,0.00,,,0.00,,2013-03-21 07:22:00,
2013-03-21 03:32:00,57.0,55.0,29.87,WNW,288,0.0,1.0,94,0.00,,,0.00,,2013-03-21 07:32:00,
2013-03-21 03:42:00,57.0,55.0,29.87,WNW,288,0.0,1.0,94,0.00,,,0.00,,2013-03-21 07:42:00,
2013-03-21 03:53:00,56.0,55.0,29.87,East,90,0.0,0.0,95,0.00,,,0.00,,2013-03-21 07:53:00,
2013-03-21 04:02:00,56.0,55.0,29.88,West,277,0.0,1.0,95,0.00,,,0.00,,2013-03-21 08:02:00,
2013-03-21 04:13:00,55.0,54.0,29.87,East,90,0.0,0.0,96,0.00,,,0.00,,2013-03-21 08:13:00,
2013-03-21 04:23:00,55.0,54.0,29.87,East,90,0.0,0.0,96,0.00,,,0.00,,2013-03-21 08:23:00,
2013-03-21 04:33:00,55.0,54.0,29.88,WNW,283,0.0,1.0,96,0.00,,,0.00,,2013-03-21 08:33:00,
2013-03-21 04:42:00,55.0,54.0,29.88,WNW,283,0.0,1.0,96,0.00,,,0.00,,2013-03-21 08:42:00,
2013-03-21 04:52:00,55.0,54.0,29.88,East,90,0.0,0.0,96,0.00,,,0.00,,2013-03-21 08:52:00,
2013-03-21 05:02:00,55.0,54.0,29.88,East,90,0.0,0.0,97,0.00,,,0.00,,2013-03-21 09:02:00,
2013-03-21 05:11:00,55.0,54.0,29.88,East,90,0.0,0.0,97,0.00,,,0.00,,2013-03-21 09:11:00,
2013-03-21 05:22:00,54.0,53.0,29.88,East,90,0.0,0.0,96,0.00,,,0.00,,2013-03-21 09:22:00,
2013-03-21 05:33:00,53.0,52.0,29.88,East,90,0.0,0.0,96,0.00,,,0.00,,2013-03-21 09:33:00,
2013-03-21 05:43:00,53.0,52.0,29.88,East,90,0.0,0.0,96,0.00,,,0.00,,2013-03-21 09:43:00,
2013-03-21 05:53:00,53.0,52.0,29.88,East,90,0.0,0.0,97,0.00,,,0.00,,2013-03-21 09:53:00,
2013-03-21 06:03:00,52.0,51.0,29.88,East,90,0.0,0.0,97,0.00,,,0.00,,2013-03-21 10:03:00,
2013-03-21 06:12:00,52.0,51.0,29.88,East,90,0.0,0.0,97,0.00,,,0.00,,2013-03-21 10:12:00,
2013-03-21 06:23:00,52.0,51.0,29.89,East,90,0.0,0.0,97,0.00,,,0.00,,2013-03-21 10:23:00,
2013-03-21 06:33:00,52.0,51.0,29.90,East,90,0.0,0.0,97,0.00,,,0.00,,2013-03-21 10:33:00,
2013-03-21 06:42:00,52.0,51.0,29.90,East,90,0.0,0.0,97,0.00,,,0.00,,2013-03-21 10:42:00,
2013-03-21 06:53:00,51.0,50.0,29.90,East,90,0.0,0.0,97,0.00,,,0.00,,2013-03-21 10:53:00,
2013-03-21 07:03:00,51.0,50.0,29.91,East,90,0.0,0.0,97,0.00,,,0.00,,2013-03-21 11:03:00,
2013-03-21 07:12:00,51.0,50.0,29.91,East,90,0.0,0.0,97,0.00,,,0.00,,2013-03-21 11:12:00,
2013-03-21 07:22:00,50.0,49.0,29.91,East,90,0.0,0.0,97,0.00,,,0.00,,2013-03-21 11:22:00,
2013-03-21 07:33:00,50.0,49.0,29.92,East,90,0.0,0.0,97,0.00,,,0.00,,2013-03-21 11:33:00,
2013-03-21 07:43:00,50.0,49.0,29.92,East,90,0.0,0.0,97,0.00,,,0.00,,2013-03-21 11:43:00,
2013-03-21 07:53:00,50.0,49.0,29.93,East,90,0.0,0.0,98,0.00,,,0.00,,2013-03-21 11:53:00,
2013-03-21 08:03:00,49.0,48.0,29.93,East,90,0.0,0.0,98,0.00,,,0.00,,2013-03-21 12:03:00,
2013-03-21 08:12:00,49.0,48.0,29.93,East,90,0.0,0.0,98,0.00,,,0.00,,2013-03-21 12:12:00,
2013-03-21 08:22:00,49.0,48.0,29.93,West,273,0.0,1.0,98,0.00,,,0.00,,2013-03-21 12:22:00,
2013-03-21 08:33:00,49.0,48.0,29.94,West,273,0.0,1.0,98,0.00,,,0.00,,2013-03-21 12:33:00,
2013-03-21 08:53:00,50.0,49.0,29.94,WNW,289,0.0,2.0,98,0.00,,,0.00,,2013-03-21 12:53:00,
2013-03-21 09:02:00,51.0,50.0,29.95,WNW,288,0.0,1.0,98,0.00,,,0.00,,2013-03-21 13:02:00,
2013-03-21 09:12:00,51.0,50.0,29.95,WNW,288,0.0,1.0,98,0.00,,,0.00,,2013-03-21 13:12:00,
2013-03-21 09:22:00,51.0,50.0,29.95,WNW,291,0.0,2.0,97,0.00,,,0.00,,2013-03-21 13:22:00,
2013-03-21 09:32:00,53.0,50.0,29.95,NW,324,0.0,2.0,91,0.00,,,0.00,,2013-03-21 13:32:00,
2013-03-21 09:42:00,53.0,50.0,29.95,NW,324,0.0,2.0,91,0.00,,,0.00,,2013-03-21 13:42:00,
2013-03-21 09:53:00,55.0,49.0,29.96,NNW,328,0.0,4.0,79,0.00,,,0.00,,2013-03-21 13:53:00,
2013-03-21 10:02:00,56.0,46.0,29.96,North,10,0.0,3.0,68,0.00,,,0.00,,2013-03-21 14:02:00,
2013-03-21 10:12:00,58.0,42.0,29.96,North,10,1.0,4.0,55,0.00,,,0.00,,2013-03-21 14:12:00,
2013-03-21 10:22:00,58.0,42.0,29.96,North,10,1.0,4.0,55,0.00,,,0.00,,2013-03-21 14:22:00,
2013-03-21 10:32:00,58.0,39.0,29.96,NNE,21,1.0,3.0,50,0.00,,,0.00,,2013-03-21 14:32:00,
2013-03-21 10:42:00,58.0,39.0,29.96,NNE,21,1.0,3.0,50,0.00,,,0.00,,2013-03-21 14:42:00,
2013-03-21 10:52:00,60.0,37.0,29.96,NNE,26,1.0,6.0,43,0.00,,,0.00,,2013-03-21 14:52:00,
2013-03-21 11:03:00,61.0,37.0,29.96,NNE,27,1.0,7.0,41,0.00,,,0.00,,2013-03-21 15:03:00,
2013-03-21 11:12:00,61.0,38.0,29.96,NNE,14,0.0,3.0,42,0.00,,,0.00,,2013-03-21 15:12:00,
2013-03-21 11:22:00,61.0,38.0,29.96,NNE,14,0.0,3.0,42,0.00,,,0.00,,2013-03-21 15:22:00,
2013-03-21 11:33:00,62.0,36.0,29.96,North,358,1.0,6.0,38,0.00,,,0.00,,2013-03-21 15:33:00,
2013-03-21 11:42:00,62.0,36.0,29.96,North,358,1.0,6.0,38,0.00,,,0.00,,2013-03-21 15:42:00,
2013-03-21 11:53:00,62.0,36.0,29.96,North,358,1.0,6.0,38,0.00,,,0.00,,2013-03-21 15:53:00,
2013-03-21 12:03:00,63.0,36.0,29.96,WNW,300,2.0,9.0,36,0.00,,,0.00,,2013-03-21 16:03:00,
2013-03-21 12:12:00,63.0,36.0,29.96,WNW,300,2.0,9.0,36,0.00,,,0.00,,2013-03-21 16:12:00,
2013-03-21 12:23:00,64.0,37.0,29.96,West,280,1.0,10.0,37,0.00,,,0.00,,2013-03-21 16:23:00,
2013-03-21 12:33:00,65.0,37.0,29.96,NNW,338,1.0,4.0,35,0.00,,,0.00,,2013-03-21 16:33:00,
2013-03-21 12:42:00,65.0,37.0,29.96,NNW,338,1.0,4.0,35,0.00,,,0.00,,2013-03-21 16:42:00,
2013-03-21 12:53:00,65.0,34.0,29.97,NW,322,2.0,8.0,32,0.00,,,0.00,,2013-03-21 16:53:00,
2013-03-21 13:02:00,65.0,37.0,29.97,NNW,337,0.0,4.0,35,0.00,,,0.00,,2013-03-21 17:02:00,
2013-03-21 13:12:00,65.0,37.0,29.97,NNW,337,0.0,4.0,35,0.00,,,0.00,,2013-03-21 17:12:00,
2013-03-21 13:23:00,66.0,37.0,29.96,North,354,2.0,10.0,34,0.00,,,0.00,,2013-03-21 17:23:00,
2013-03-21 13:33:00,67.0,38.0,29.96,NNW,347,1.0,5.0,34,0.00,,,0.00,,2013-03-21 17:33:00,
2013-03-21 13:43:00,67.0,38.0,29.96,NNW,347,1.0,5.0,34,0.00,,,0.00,,2013-03-21 17:43:00,
2013-03-21 13:53:00,67.0,37.0,29.96,West,272,2.0,9.0,33,0.00,,,0.00,,2013-03-21 17:53:00,
2013-03-21 14:02:00,67.0,35.0,29.95,WNW,284,2.0,7.0,30,0.00,,,0.00,,2013-03-21 18:02:00,
2013-03-21 14:12:00,67.0,35.0,29.95,WNW,284,2.0,7.0,30,0.00,,,0.00,,2013-03-21 18:12:00,
2013-03-21 14:23:00,68.0,35.0,29.94,WNW,287,2.0,7.0,30,0.00,,,0.00,,2013-03-21 18:23:00,
2013-03-21 14:32:00,68.0,36.0,29.93,NW,326,0.0,4.0,31,0.00,,,0.00,,2013-03-21 18:32:00,
2013-03-21 14:42:00,68.0,36.0,29.93,NW,326,0.0,4.0,31,0.00,,,0.00,,2013-03-21 18:42:00,
2013-03-21 14:52:00,69.0,36.0,29.92,North,10,0.0,4.0,30,0.00,,,0.00,,2013-03-21 18:52:00,
2013-03-21 15:02:00,70.0,36.0,29.92,WNW,301,1.0,4.0,29,0.00,,,0.00,,2013-03-21 19:02:00,
2013-03-21 15:12:00,70.0,36.0,29.92,WNW,301,1.0,4.0,29,0.00,,,0.00,,2013-03-21 19:12:00,
2013-03-21 15:22:00,70.0,36.0,29.91,NW,310,1.0,5.0,29,0.00,,,0.00,,2013-03-21 19:22:00,
2013-03-21 15:32:00,70.0,34.0,29.90,WNW,303,1.0,5.0,27,0.00,,,0.00,,2013-03-21 19:32:00,
2013-03-21 15:42:00,70.0,34.0,29.90,WNW,303,1.0,5.0,27,0.00,,,0.00,,2013-03-21 19:42:00,
2013-03-21 15:52:00,70.0,34.0,29.90,West,274,2.0,7.0,27,0.00,,,0.00,,2013-03-21 19:52:00,
2013-03-21 16:02:00,69.0,34.0,29.89,WNW,294,1.0,5.0,27,0.00,,,0.00,,2013-03-21 20:02:00,
2013-03-21 16:10:00,72.0,35.0,29.88,West,277,3.0,5.0,26,0.00,,,0.00,,2013-03-21 20:10:00,
2013-03-21 16:12:00,69.0,34.0,29.89,WNW,294,1.0,5.0,27,0.00,,,0.00,,2013-03-21 20:12:00,
2013-03-21 16:22:00,72.0,37.0,29.88,WNW,287,1.0,5.0,28,0.00,,,0.00,,2013-03-21 20:22:00,
2013-03-21 16:33:00,72.0,35.0,29.88,West,277,3.0,5.0,26,0.00,,,0.00,,2013-03-21 20:33:00,
2013-03-21 16:42:00,72.0,35.0,29.88,West,277,3.0,5.0,26,0.00,,,0.00,,2013-03-21 20:42:00,
2013-03-21 16:53:00,72.0,35.0,29.88,West,277,3.0,5.0,26,0.00,,,0.00,,2013-03-21 20:53:00,
2013-03-21 17:02:00,72.0,35.0,29.88,West,277,3.0,5.0,26,0.00,,,0.00,,2013-03-21 21:02:00,
2013-03-21 17:23:00,74.0,33.0,29.88,NNW,340,0.0,2.0,22,0.00,,,0.00,,2013-03-21 21:23:00,
2013-03-21 17:33:00,74.0,33.0,29.88,East,90,0.0,0.0,22,0.00,,,0.00,,2013-03-21 21:33:00,
2013-03-21 17:43:00,74.0,33.0,29.88,East,90,0.0,0.0,22,0.00,,,0.00,,2013-03-21 21:43:00,
2013-03-21 17:53:00,74.0,33.0,29.88,East,90,0.0,0.0,22,0.00,,,0.00,,2013-03-21 21:53:00,
2013-03-21 18:03:00,74.0,44.0,29.88,East,90,0.0,0.0,34,0.00,,,0.00,,2013-03-21 22:03:00,
2013-03-21 18:13:00,74.0,44.0,29.88,East,90,0.0,0.0,34,0.00,,,0.00,,2013-03-21 22:13:00,
2013-03-21 18:23:00,73.0,44.0,29.88,South,171,0.0,1.0,35,0.00,,,0.00,,2013-03-21 22:23:00,
2013-03-21 18:33:00,73.0,44.0,29.89,ENE,72,0.0,1.0,35,0.00,,,0.00,,2013-03-21 22:33:00,
2013-03-21 18:42:00,73.0,44.0,29.89,ENE,72,0.0,1.0,35,0.00,,,0.00,,2013-03-21 22:42:00,
2013-03-21 18:52:00,72.0,44.0,29.90,WNW,287,0.0,1.0,36,0.00,,,0.00,,2013-03-21 22:52:00,
2013-03-21 19:02:00,70.0,45.0,29.90,East,94,0.0,1.0,40,0.00,,,0.00,,2013-03-21 23:02:00,
2013-03-21 19:12:00,70.0,45.0,29.90,East,94,0.0,1.0,40,0.00,,,0.00,,2013-03-21 23:12:00,
2013-03-21 19:22:00,67.0,44.0,29.91,East,90,0.0,0.0,44,0.00,,,0.00,,2013-03-21 23:22:00,
2013-03-21 19:32:00,64.0,44.0,29.91,East,90,0.0,0.0,49,0.00,,,0.00,,2013-03-21 23:32:00,
2013-03-21 19:42:00,64.0,44.0,29.91,East,90,0.0,0.0,49,0.00,,,0.00,,2013-03-21 23:42:00,
2013-03-21 19:53:00,62.0,45.0,29.91,East,90,0.0,0.0,53,0.00,,,0.00,,2013-03-21 23:53:00,
2013-03-21 20:03:00,60.0,44.0,29.91,East,90,0.0,0.0,56,0.00,,,0.00,,2013-03-22 00:03:00,
2013-03-21 20:12:00,60.0,44.0,29.91,East,90,0.0,0.0,56,0.00,,,0.00,,2013-03-22 00:12:00,
2013-03-21 20:22:00,59.0,46.0,29.91,East,90,0.0,0.0,61,0.00,,,0.00,,2013-03-22 00:22:00,
2013-03-21 20:32:00,57.0,45.0,29.92,East,90,0.0,0.0,64,0.00,,,0.00,,2013-03-22 00:32:00,
2013-03-21 20:42:00,57.0,45.0,29.92,East,90,0.0,0.0,64,0.00,,,0.00,,2013-03-22 00:42:00,
2013-03-21 20:52:00,56.0,46.0,29.92,East,90,0.0,0.0,68,0.00,,,0.00,,2013-03-22 00:52:00,
2013-03-21 21:03:00,55.0,45.0,29.93,East,90,0.0,0.0,70,0.00,,,0.00,,2013-03-22 01:03:00,
2013-03-21 21:12:00,55.0,45.0,29.93,East,90,0.0,0.0,70,0.00,,,0.00,,2013-03-22 01:12:00,
2013-03-21 21:22:00,54.0,46.0,29.93,East,90,0.0,0.0,75,0.00,,,0.00,,2013-03-22 01:22:00,
2013-03-21 21:32:00,54.0,48.0,29.93,East,90,0.0,0.0,79,0.00,,,0.00,,2013-03-22 01:32:00,
2013-03-21 21:43:00,54.0,48.0,29.93,East,90,0.0,0.0,79,0.00,,,0.00,,2013-03-22 01:43:00,
2013-03-21 21:53:00,52.0,45.0,29.93,East,90,0.0,0.0,77,0.00,,,0.00,,2013-03-22 01:53:00,
2013-03-21 22:02:00,52.0,45.0,29.94,East,90,0.0,0.0,77,0.00,,,0.00,,2013-03-22 02:02:00,
2013-03-21 22:12:00,52.0,45.0,29.94,East,90,0.0,0.0,77,0.00,,,0.00,,2013-03-22 02:12:00,
2013-03-21 22:22:00,51.0,45.0,29.94,East,90,0.0,0.0,80,0.00,,,0.00,,2013-03-22 02:22:00,
2013-03-21 22:32:00,51.0,44.0,29.95,East,90,0.0,0.0,78,0.00,,,0.00,,2013-03-22 02:32:00,
2013-03-21 22:43:00,51.0,44.0,29.95,East,90,0.0,0.0,78,0.00,,,0.00,,2013-03-22 02:43:00,
2013-03-21 22:53:00,51.0,44.0,29.95,East,90,0.0,0.0,78,0.00,,,0.00,,2013-03-22 02:53:00,
2013-03-21 23:02:00,51.0,45.0,29.95,East,90,0.0,0.0,80,0.00,,,0.00,,2013-03-22 03:02:00,
2013-03-21 23:12:00,51.0,45.0,29.95,East,90,0.0,0.0,80,0.00,,,0.00,,2013-03-22 03:12:00,
2013-03-21 23:22:00,50.0,44.0,29.95,East,90,0.0,0.0,81,0.00,,,0.00,,2013-03-22 03:22:00,
2013-03-21 23:33:00,50.0,44.0,29.95,East,90,0.0,0.0,81,0.00,,,0.00,,2013-03-22 03:33:00,
2013-03-21 23:43:00,50.0,44.0,29.95,East,90,0.0,0.0,81,0.00,,,0.00,,2013-03-22 03:43:00,
2013-03-21 23:53:00,50.0,45.0,29.95,East,90,0.0,0.0,83,0.00,,,0.00,,2013-03-22 03:53:00,